Dewpoint
30 30 30 30 31 31 31 31 31 32 32 32 32 32 32 33 34 35 36 36 36 36 36 36 35 35 35 34 33 31 30 28 28 28 27 26 25 24 25 22 23 23
27 29 30 30 30 30 30 31 31 31 31 31 31 32 32 33 33 34 34 36 35 35 35 35 35 35 34 33 32 31 30 29 27 30 28 26 25 25 24 23 23 23
26 26 27 27 28 28 29 29 29 29 29 30 30 31 32 33 33 33 34 34 35 35 35 35 34 34 33 32 31 31 30 29 28 27 27 27 26 25 24 23 22 22
25 25 26 26 27 26 26 27 27 28 28 28 28 29 30 31 31 31 31 32 33 33 33 32 32 32 31 31 30 31 30 29 29 28 27 26 26 26 25 23 23 22
25 25 25 25 25 26 24 26 25 27 27 27 27 28 28 28 28 29 29 30 31 31 33 33 32 32 32 31 30 31 30 30 29 28 27 26 26 26 26 25 24 23
23 25 24 24 23 25 22 24 25 26 26 25 26 27 27 27 27 27 28 28 28 29 30 31 31 31 31 31 31 31 31 30 29 28 27 27 26 25 26 26 25 24
23 23 22 23 22 24 22 23 23 25 24 25 26 25 26 25 26 26 27 27 27 28 28 29 30 30 30 30 30 30 30 30 29 28 27 26 26 25 24 24 24 24
23 23 22 22 22 23 21 24 23 24 24 25 24 24 25 25 25 26 26 26 26 26 26 27 28 29 30 30 30 30 29 30 29 28 27 26 25 24 23 24 22 22
20 20 20 20 21 22 21 23 23 23 24 23 23 24 25 25 25 26 26 26 25 25 25 25 26 26 27 28 29 29 28 28 29 28 27 27 26 25 23 23 22 21
20 20 18 17 16 20 21 23 24 23 23 23 22 23 23 23 25 25 26 25 25 25 25 25 25 25 25 25 26 27 27 27 26 26 26 27 26 25 24 23 22 21
18 19 19 20 19 18 18 20 22 23 23 23 22 22 22 22 22 24 24 24 25 24 24 24 25 25 25 24 25 25 25 26 25 25 25 25 25 25 27 24 23 22
16 16 17 17 20 21 20 20 21 22 23 22 23 22 22 21 21 22 22 22 22 23 24 24 25 25 24 24 24 25 25 25 25 25 24 24 24 24 24 24 24 23
15 16 16 17 18 20 20 20 20 22 23 22 22 22 21 21 21 21 20 21 21 21 22 22 24 24 25 25 25 25 25 25 25 25 25 24 24 24 23 23 23 23
16 16 17 17 18 19 19 19 19 20 21 23 24 22 22 21 21 21 21 21 20 20 21 22 23 23 24 24 24 24 24 24 24 25 25 24 24 24 24 23 23 23
17 17 18 17 18 18 18 18 18 18 20 22 24 24 24 23 22 21 20 19 18 19 19 20 22 22 24 24 24 24 25 25 25 25 25 25 25 25 24 24 24 23
17 17 16 16 17 17 18 18 18 18 19 19 20 22 23 23 22 21 20 18 17 17 18 20 21 22 25 28 30 27 26 26 26 26 26 25 25 25 25 25 25 25
16 16 16 15 16 17 18 18 18 19 19 18 19 20 21 21 21 19 18 17 16 16 16 17 19 21 27 29 30 29 28 27 27 27 27 26 26 26 25 26 26 26
16 16 16 17 17 18 18 19 19 19 18 18 18 18 18 20 19 18 17 16 16 15 14 15 16 24 25 26 26 26 28 26 27 27 27 26 26 26 26 25 25 25
16 17 17 18 18 18 18 19 19 18 18 17 17 17 18 18 18 18 16 15 14 13 13 14 15 22 24 25 26 26 27 27 25 25 25 26 26 26 26 26 25 25
17 18 18 18 18 18 18 18 18 18 17 17 17 17 17 17 17 17 16 15 13 13 13 13 14 20 23 24 25 26 27 27 25 26 26 26 26 26 26 26 26 25
17 18 17 17 18 18 17 17 17 17 17 17 17 16 16 16 16 16 16 16 15 14 13 13 12 20 22 23 25 26 27 27 26 26 26 26 25 25 26 26 26 26
16 16 16 16 15 16 16 16 16 17 16 16 16 15 15 15 15 15 15 14 14 14 13 12 11 19 21 22 23 25 26 25 25 25 25 25 25 24 24 24 25 25
13 13 13 14 14 14 15 14 14 15 15 15 14 14 13 13 13 13 14 13 13 13 12 12 12 16 20 21 22 23 24 23 23 23 23 23 22 22 22 22 23 24
11 12 12 13 13 12 12 12 12 12 13 13 13 12 12 12 12 12 12 12 12 11 12 11 12 15 18 20 21 22 22 20 21 21 22 22 21 21 21 21 22 26
9 9 10 11 11 10 10 9 9 9 9 10 10 10 10 10 11 11 10 11 11 10 13 12 11 13 17 19 20 21 19 18 19 19 19 20 20 20 20 21 20 23
6 8 9 7 5 4 4 4 5 5 6 6 7 7 7 7 8 8 8 8 9 9 9 9 8 9 11 17 18 19 20 16 15 14 14 16 17 19 19 19 20 20